發表時間 文章標題 人氣 留言
2017-06-08 【WINDTAC】HTC Desire 728 dual sim 螢幕保護貼(亮霧面) (0) (0)
2017-06-05 【KINYO】舒壓護腕滑鼠墊(MP-231) (0) (0)
2017-06-05 【福利品】Innowatt MFi 蘋果認證 Lightning 2 米充電傳輸線(外包紙盒褪色) (0) (0)
2017-06-05 【PhotoFast】蘋果microSD讀卡機 CR-8800(內含16G記憶卡) (0) (0)
2017-06-05 【oweida】ASUS ZenFone3 Laser ZC551KL 鋼化玻璃保護貼(ZC551KL) (0) (0)
2017-06-05 【DELL】XPS 15吋筆記型電腦(XPS15-9560-R2748STW 銀色) (3) (0)
2017-06-03 【WK Design香港潮牌】扣馳指環式手機保護殼(iPhone 7 Plus) (0) (0)
2017-06-03 【PHILIPS 飛利浦】入耳式藍牙耳機(SHB1500) (0) (0)
2017-06-03 【Kenko】Artos 10X42 W 雙筒望遠鏡(公司貨) (0) (0)
2017-06-03 【bcase】二代多功能傳輸線磁吸收納器 磁性鑰匙圈收納 集線器 (0) (0)
2017-06-03 【KnowStar】APPLE iPhone6+-6s Plus 奧地利水晶彩繪氣墊手機鑽殼-櫻之舞(5.5吋) (0) (0)
2017-05-15 【SONY】Walkman NW-E394 8GB 數位隨身聽(公司貨) (0) (0)
2017-05-15 【Ainmax】搭飛機3.5mm耳機轉接頭 適用航空旅行(再送充電型雙埠耳擴) (1) (0)
2017-05-15 【幾米】iPhone 6-6S Plus 5.5吋透明手機殼(百變小完美) (0) (0)
2017-05-15 【三麗鷗 Hello Kitty】iPhone 7 - 6s - 6 Plus 5.5吋 微閃粉玻璃保護貼(玫瑰凱蒂) (0) (0)
2017-05-15 【愛戀花草★買一送二】彈性豐盈 百合花草本潤絲精(500ML-三瓶組) (0) (0)
2017-05-14 【Cam in】真皮相機背帶圓孔款20cm(CAM3901-棕色) (0) (0)
2017-05-14 【aibo】HV130K 18000 Plus 行動電源(BSMI認證) (1) (0)
2017-05-14 【iMOS Touch Stream】Samsung Note 5 螢幕保護貼(霧面) (0) (0)
2017-05-14 【名模衣櫃】快速到貨-韓系橫紋針織衫-米白色32888(F可選) (0) (0)
2017-05-13 【美國TYR】男款透氣排汗黑色短T Mens Running Tee(台灣總代理) (0) (0)
2017-05-13 【WT】Samsung Galaxy J7 Prime 5.5吋 奧地利水晶彩繪空壓手機殼(精靈捧花) (0) (0)
2017-05-13 【Patchworks】iPhone 7 極限耐衝擊手機保護殼(透明) (0) (0)
2017-05-13 八角形可折疊戶外寵物籠(小款-72寬x45長cm) (0) (0)
2017-05-13 【健喬信元】加1元多1件-日本鈣+D3鈣質強化咀嚼錠-60錠(2+1盒) (0) (0)
2017-05-11 【連勤LAN CHYN】三孔活頁名片簿-480名-LC3480-藍 (0) (0)
2017-05-11 【Lenovo】Ideapad 710S 13.3吋FHD時尚輕薄筆電(i7-6500U-8G-256G SSD-Win10) (0) (0)
2017-05-11 【GARMIN】vivosmart HR iPass 腕式心率智慧手環 (0) (0)
2017-05-11 【Colors】Apple iphone 6 - 6s 看透風景手機殼 (0) (0)
2017-05-11 【有好醋】桑椹醋(750ml) (0) (0)
2017-05-10 【恐龍親子寶貝】123 寶寶認知小書 (0) (0)
2017-05-10 【ASUS】K20CD Intel雙核 小型電腦(G4400-4G-128GB SSD-W10)+華碩WiFi分享器 (0) (0)
2017-05-10 K31數位錄音筆(8GB) (1) (0)
2017-05-10 【萬歲牌】活力六寶(140公克) (0) (0)
2017-05-10 【康乃馨】寶寶潔膚濕巾外出包20片 整箱(20片-包;24包-箱) (0) (0)
2017-05-07 【ViVibaby】迪士尼米妮花園乳膠床墊-寶寶專屬的舒適睡眠(粉) (0) (0)
2017-05-07 【ARMOR-X】MX-A4 防水1米保護套 for iPad air(白) (0) (0)
2017-05-07 【財神小舖】吐寶發財-青玉三腳蟾蜍擺件-吉祥之物-挖掘財源(含開光) (0) (0)
2017-05-07 【白因子】家庭號500ml-2+50ml隨身瓶-4(白因子噴霧) (2) (0)
2017-05-07 【DON 艾維拉】雙人四件式天絲兩用被床包組 (0) (0)
2017-05-05 【康乃馨】御守棉超薄衛生棉量多加長14片8入 整箱(14片-包;8包-箱) (0) (0)
2017-05-05 【輕果物語】美國進口櫻桃乾(輕果物語果乾系列) (0) (0)
2017-05-05 【象印】-0.5L-SLiT不鏽鋼真空保溫杯(SM-AGE50) (0) (0)
2017-05-05 【日本KNEADER】製麵條機(MC200) (0) (0)
2017-05-05 【NK】NIKE 運動毛巾(大 藍-白 120x60cm) (2) (0)
2017-05-05 【VANGUARD】Heralder 傳信者 33 單肩背郵差相機(公司貨) (0) (0)
2017-05-05 【愛之味】黑豆蔭脆瓜(130g-12) (0) (0)
2017-05-05 【思藍喜】遠紅外線負離子機能眼罩(香檳金) (0) (0)
2017-05-05 【快速到貨 PS Mall】暢銷日韓5層矽膠隱形增高鞋墊-知名節目推薦-韓國台灣藝人愛用(S1) (0) (0)
2017-05-05 【Field Day】柑橘安健洗髮精(473mL) (0) (0)